FW2418 Weather Reports


time (UTC)temp
C
wind
direction
speed
KPH
gust
KPH
rain 1hr
cm
rain 24hr
cm
rain mn
cm
humidity
%
barometer
mb
20260503030448 19 32 0.0 1.6 0.05 0.53 0.53 97 1010.9
20260503025446 19 34 1.6 4.8 0.03 0.51 0.51 97 1010.9
20260503024446 19 356 0.0 8.0 0.03 0.51 0.51 96 1010.9
20260503023445 20 40 1.6 12.9 0.03 0.51 0.51 96 1010.6
20260503022444 20 8 3.2 14.5 0.03 0.51 0.51 95 1010.3
20260503021443 20 13 4.8 11.3 0.00 0.48 0.48 96 1009.9
20260503020442 20 311 0.0 1.6 0.00 0.48 0.48 96 1009.6
20260503015441 20 356 0.0 0.0 0.00 0.48 0.48 96 1009.6
20260503014409 20 359 0.0 0.0 0.00 0.48 0.48 96 1009.2
20260503013407 20 359 0.0 0.0 0.00 0.48 0.48 96 1009.2
20260503012406 20 356 0.0 1.6 0.00 0.48 0.48 96 1009.2
20260503011405 20 358 0.0 1.6 0.00 0.48 0.48 96 1008.9
20260503010404 20 304 0.0 1.6 0.00 0.48 0.48 96 1008.9
20260503005332 20 304 0.0 0.0 0.00 0.48 0.48 96 1008.9
20260503004331 21 303 0.0 1.6 0.00 0.48 0.48 96 1008.6
20260503003330 21 303 0.0 1.6 0.00 0.48 0.48 95 1008.6
20260503002329 21 303 0.0 1.6 0.00 0.48 0.48 95 1008.6
20260503001257 21 267 1.6 1.6 0.00 0.48 0.48 95 1008.2
20260503000256 21 261 1.6 1.6 0.00 0.48 0.48 94 1008.2
20260502235255 21 278 0.0 4.8 0.00 0.48 0.48 94 1007.9
20260502234254 21 256 1.6 4.8 0.00 0.48 0.48 94 1007.9
20260502233253 21 229 1.6 6.4 0.00 0.48 0.48 95 1007.9
20260502232252 21 241 1.6 6.4 0.00 0.48 0.48 95 1007.9
20260502231252 21 260 1.6 3.2 0.00 0.48 0.48 95 1007.9
20260502230251 21 236 1.6 3.2 0.00 0.48 0.48 95 1007.9
20260502225250 21 283 1.6 3.2 0.00 0.48 0.48 95 1007.9
20260502224249 21 273 1.6 4.8 0.00 0.48 0.48 95 1007.5
20260502223248 21 272 1.6 4.8 0.00 0.48 0.48 95 1007.5
20260502222215 21 243 1.6 9.7 0.00 0.48 0.48 95 1007.2
20260502221214 21 301 1.6 9.7 0.00 0.48 0.48 96 1007.5
20260502220213 21 272 1.6 6.4 0.00 0.48 0.48 95 1007.2
20260502215213 21 243 1.6 4.8 0.00 0.48 0.48 96 1007.2
20260502214212 20 274 1.6 6.4 0.00 0.48 0.48 96 1007.2
20260502213211 20 279 1.6 3.2 0.05 0.48 0.48 96 1007.2
20260502212210 20 243 1.6 3.2 0.13 0.48 0.48 96 1007.2
20260502211209 20 244 0.0 1.6 0.13 0.48 0.48 97 1006.9
20260502210209 20 250 0.0 4.8 0.13 0.48 0.48 97 1006.9
20260502205208 20 303 1.6 8.0 0.13 0.48 0.48 96 1007.2
20260502204207 20 244 1.6 8.0 0.15 0.48 0.48 96 1006.9
20260502203206 20 252 1.6 8.0 0.10 0.43 0.43 96 1007.5
20260502202205 20 249 3.2 6.4 0.05 0.36 0.36 96 1008.5
20260502201205 20 250 1.6 3.2 0.10 0.36 0.36 95 1008.2
20260502200204 20 256 1.6 4.8 0.33 0.36 0.36 95 1007.9
20260502195202 20 267 1.6 6.4 0.36 0.36 0.36 95 1007.9
20260502194202 20 280 1.6 6.4 0.33 0.33 0.33 95 1008.2
20260502193200 20 295 3.2 8.0 0.33 0.33 0.33 94 1008.5
20260502192200 20 293 1.6 27.4 0.30 0.30 0.30 93 1009.2
20260502191159 21 279 3.2 29.0 0.25 0.25 0.25 91 1009.2
20260502190158 25 279 11.3 22.5 0.03 0.03 0.03 77 1009.2
20260502185157 26 280 9.7 20.9 0.00 0.00 0.00 64 1008.6
20260502184156 28 298 8.0 17.7 0.00 0.00 0.00 69 1008.2
20260502183155 28 251 1.6 6.4 0.00 0.00 0.00 68 1007.6
20260502182154 28 265 3.2 9.7 0.00 0.00 0.00 66 1007.6
20260502181153 29 253 1.6 9.7 0.00 0.00 0.00 64 1007.6
20260502180152 29 270 4.8 12.9 0.00 0.00 0.00 63 1007.6
20260502164011 29 253 1.6 11.3 0.00 0.00 0.00 69 1007.6
20260502162938 28 278 3.2 12.9 0.00 0.00 0.00 68 1007.9
20260502161937 29 259 3.2 12.9 0.00 0.00 0.00 67 1007.9
20260502160936 29 216 3.2 17.7 0.00 0.00 0.00 66 1007.9
20260502151932 28 200 4.8 11.3 0.00 0.00 0.00 69 1008.3
20260502150931 27 175 1.6 11.3 0.00 0.00 0.00 71 1008.3
20260502130746 23 163 3.2 12.9 0.00 0.00 0.00 91 1008.2
20260502123712 23 163 3.2 9.7 0.00 0.00 0.00 96 1007.9
20260502122640 22 157 3.2 4.8 0.00 0.00 0.00 97 1007.9
20260502121639 21 173 3.2 4.8 0.00 0.00 0.00 98 1007.9
20260502120638 21 158 0.0 3.2 0.00 0.00 0.00 99 1007.6
20260502115637 20 314 0.0 0.0 0.00 0.00 0.00 99 1007.6
20260502114636 20 314 0.0 0.0 0.00 0.00 0.00 98 1007.6
20260502113624 20 314 0.0 0.0 0.00 0.00 0.00 98 1007.6
20260502112623 20 314 0.0 0.0 0.00 0.00 0.00 98 1007.6
20260502111622 20 313 0.0 0.0 0.00 0.00 0.00 98 1007.6
20260502110550 20 314 0.0 0.0 0.00 0.00 0.00 98 1007.2
20260502105549 19 314 0.0 0.0 0.00 0.00 0.00 98 1006.9
20260502104548 19 313 0.0 0.0 0.00 0.00 0.00 98 1006.9
20260502103547 19 313 0.0 0.0 0.00 0.00 0.00 98 1006.5
20260502102515 19 313 0.0 0.0 0.00 0.00 0.00 97 1006.6
20260502101514 19 313 0.0 0.0 0.00 0.00 0.00 97 1006.9
20260502100513 19 313 0.0 0.0 0.00 0.00 0.00 97 1006.9
20260502091438 20 314 0.0 0.0 0.00 0.00 0.00 96 1007.6
20260502090437 20 313 0.0 0.0 0.00 0.00 0.00 96 1007.6
20260502071356 21 269 0.0 1.6 0.00 0.00 0.00 94 1007.6
20260502070355 21 269 0.0 1.6 0.00 0.00 0.00 94 1007.6
20260502065354 21 278 0.0 1.6 0.00 0.00 0.00 94 1007.6
20260502064354 21 278 0.0 1.6 0.00 0.00 0.00 94 1007.9
20260502063353 21 280 0.0 1.6 0.00 0.00 0.00 94 1007.9
20260502062321 21 262 0.0 1.6 0.00 0.00 0.00 94 1008.3
20260502061320 21 255 1.6 1.6 0.00 0.00 0.00 94 1008.3
20260502060319 21 255 0.0 1.6 0.00 0.00 0.00 95 1008.3
20260502055318 21 131 0.0 0.0 0.00 0.00 0.00 95 1008.3
20260502054246 21 131 0.0 0.0 0.00 0.00 0.00 95 1008.3
20260502053244 21 131 0.0 0.0 0.00 0.00 0.00 95 1008.3
20260502052244 21 131 0.0 0.0 0.00 0.00 0.00 95 1008.6
20260502051212 21 131 0.0 0.0 0.00 0.00 0.00 94 1008.6
20260502050140 21 131 0.0 0.0 0.00 0.00 0.00 94 1008.3
20260502045139 21 131 0.0 0.0 0.00 0.00 0.00 94 1008.6
20260502044138 21 131 0.0 0.0 0.00 0.00 0.00 93 1008.6
20260502043137 21 131 0.0 0.0 0.00 0.00 0.00 93 1008.3
20260502042136 22 131 0.0 0.0 0.00 0.00 0.00 92 1008.3
20260502041136 22 131 0.0 0.0 0.00 0.00 0.00 92 1008.6
20260502040135 22 131 0.0 0.0 0.00 0.00 0.00 92 1008.6
20260502035134 22 131 0.0 0.0 0.00 0.00 0.00 91 1008.6
20260502034133 22 131 0.0 0.0 0.00 0.00 0.00 90 1008.6
20260502033132 22 131 0.0 0.0 0.00 0.00 0.00 89 1008.6
20260502032131 23 131 0.0 0.0 0.00 0.00 0.00 88 1008.6